Flag for Netherlands Weather past 2 weeks in Nijmegen, Netherlands

Now
59 °F

Passing clouds.


Feels Like: 56 °F
Forecast: 49 / 64 °F
Wind: 14 mph from Southwest

Location: Volkel

Current Time: Aug 22, 2014 at 10:39:43 AM

Latest Report: Aug 22, 2014 at 9:55 AM


Visibility: N/A

Pressure: 29.86 "Hg

Humidity: 72%

Dew point: 50 °F

Location of NijmegenLocation

Historic Weather in Nijmegen — Graph

°F

Nijmegen temperature yesterday

Maximum temperature yesterday: 66 °F (at 3:55 PM)
Minimum temperature yesterday: 45 °F (at 1:55 AM)
Average temperature yesterday: 55 °F

Past Weeks' High & Low Weather Summary

 TemperatureHumidityPressure
High77 °F (Aug 8, 1:55 PM)100% (Aug 7, 10:25 PM)30.09 "Hg (Aug 7, 10:25 PM)
Low43 °F (Aug 20, 2:25 AM)47% (Aug 13, 3:25 PM)29.53 "Hg (Aug 10, 4:55 PM)
Average60 °F83%29.84 "Hg
* Reported Aug 7 9:25 AM — Aug 22 9:25 AM, Nijmegen, Weather by CustomWeather, © 2014

Note: Actual official high and low records may vary slightly from our data, if they occured in-between our weather recording intervals... More about our weather records

Advertising

Nijmegen weather history for previous 24 hours

 ConditionsComfort  
Time TempWeatherWind HumidityBarometerVisibility
9:25 AM
Aug 22
57 °FScattered clouds.10 mph77%29.86 "HgN/A
8:55 AM55 °FPassing clouds.8 mph82%29.86 "HgN/A
8:25 AM55 °FMostly cloudy.9 mph82%29.86 "HgN/A
7:55 AM54 °FMore clouds than sun.9 mph82%29.86 "HgN/A
7:25 AM54 °FOvercast.8 mph82%29.86 "HgN/A
6:55 AM52 °FMostly cloudy.8 mph88%29.86 "HgN/A
6:25 AM52 °FOvercast.7 mph88%29.89 "HgN/A
5:55 AM52 °FMostly cloudy.7 mph88%29.89 "HgN/A
5:25 AM52 °FOvercast.8 mph88%29.89 "HgN/A
4:55 AM52 °FOvercast.7 mph88%29.89 "HgN/A
4:25 AM52 °FOvercast.8 mph88%29.89 "HgN/A
3:55 AM52 °FOvercast.8 mph88%29.89 "HgN/A
3:25 AM52 °FOvercast.6 mph88%29.92 "HgN/A
2:55 AM52 °FOvercast.5 mph88%29.92 "HgN/A
2:25 AM52 °FOvercast.8 mph88%29.92 "HgN/A
1:55 AM52 °FOvercast.7 mph88%29.92 "HgN/A
1:25 AM52 °FPassing clouds.8 mph88%29.92 "HgN/A
12:55 AM52 °FOvercast.6 mph94%29.95 "HgN/A
12:25 AM54 °FOvercast.6 mph88%29.95 "HgN/A
11:55 PM
Aug 21
54 °FOvercast.6 mph88%29.95 "HgN/A
11:25 PM54 °FOvercast.6 mph88%29.95 "HgN/A
10:55 PM52 °FMostly cloudy.3 mph94%29.95 "HgN/A
10:25 PM52 °FOvercast.5 mph94%29.95 "HgN/A
9:55 PM54 °FPassing clouds.5 mph88%29.95 "HgN/A
9:25 PM55 °FPartly sunny.3 mph82%29.95 "HgN/A
8:55 PM57 °FOvercast.3 mph82%29.95 "HgN/A
8:25 PM59 °FDrizzle. Broken clouds.6 mph77%29.95 "HgN/A
7:55 PM59 °FMostly cloudy.6 mph72%29.95 "HgN/A
7:25 PM61 °FMostly cloudy.7 mph68%29.95 "HgN/A
6:55 PM61 °FOvercast.6 mph63%29.95 "HgN/A
6:25 PM63 °FBroken clouds.10 mph56%29.95 "HgN/A
5:55 PM66 °FPartly sunny.10 mph52%29.95 "HgN/A
5:25 PM63 °FOvercast.8 mph59%29.95 "HgN/A
4:55 PM64 °FPartly sunny.10 mph49%29.95 "HgN/A
4:25 PM66 °FPartly sunny.10 mph52%29.98 "HgN/A
3:55 PM66 °FOvercast.7 mph52%29.98 "HgN/A
3:25 PM63 °FMostly cloudy.5 mph59%29.98 "HgN/A
2:55 PM61 °FOvercast.7 mph63%30.01 "HgN/A
2:25 PM61 °FOvercast.8 mph63%30.01 "HgN/A
1:55 PM61 °FMostly cloudy.10 mph63%30.01 "HgN/A
1:25 PM63 °FPartly sunny.14 mph59%30.01 "HgN/A
12:55 PM63 °FPassing clouds.10 mph59%30.01 "HgN/A
12:25 PM63 °FScattered clouds.12 mph59%30.01 "HgN/A
11:55 AM63 °FMild.8 mph56%30.01 "HgN/A
11:25 AM63 °FMild.8 mph64%30.01 "HgN/A
10:55 AM61 °FCool.7 mph68%30.01 "HgN/A
10:25 AM59 °FCool.8 mph72%30.01 "HgN/A
Weather by CustomWeather, © 2014

See weather overviewHow to use our weather pages